This demonstration page uses our WeatherBlox Daily Observations layout. Learn more.

Left ArrowRight Arrow

Hourly Observations for January 27, 2022

Temp ( °F °C ) Dew Point ( °F °C ) Humidity (%) Winds ( mph kmh ) Pressure ( in mb ) Visibility ( mi km ) Precip ( " mm )
12:53 am 00:53 Mostly Cloudy 44 6.7 19 -7.2 37 37 ESE 8 13 30.28 1026 10 16 0.00 0.00
1:53 am 01:53 Cloudy 44 6.7 18 -7.8 35 35 SE 6 9 30.29 1026 10 16 0.00 0.00
2:53 am 02:53 Mostly Cloudy 44 6.7 19 -7.2 37 37 ESE 5 7 30.28 1025 10 16 0.00 0.00
3:53 am 03:53 Partly Cloudy 42 5.6 20 -6.7 41 41 E 3 6 30.28 1025 10 16 0.00 0.00
4:53 am 04:53 Mostly Cloudy 39 3.9 21 -6.1 48 48 Calm 30.29 1026 10 16 0.00 0.00
5:53 am 05:53 Partly Cloudy 37 2.8 23 -5 57 57 ESE 3 6 30.28 1025 10 16 0.00 0.00
6:53 am 06:53 Mostly Cloudy 35 1.7 24 -4.4 64 64 Calm 30.29 1026 10 16 0.00 0.00
7:53 am 07:53 Mostly Cloudy 40 4.4 23 -5 51 51 E 6 9 30.28 1026 10 16 0.00 0.00
8:53 am 08:53 Mostly Cloudy 43 6.1 24 -4.4 47 47 Calm 30.29 1026 10 16 0.00 0.00
9:53 am 09:53 Mostly Cloudy 44 6.7 23 -5 43 43 VRB 3 6 30.31 1026 10 16 0.00 0.00
10:53 am 10:53 Cloudy 45 7.2 23 -5 42 42 WSW 5 7 30.32 1027 10 16 0.00 0.00
11:53 am 11:53 Cloudy 46 7.8 30 -1.1 54 54 WNW 7 11 30.31 1027 10 16 0.00 0.00
12:53 pm 12:53 Cloudy 46 7.8 30 -1.1 54 54 VRB 5 7 30.27 1025 10 16 0.00 0.00
1:53 pm 13:53 Cloudy 48 8.9 28 -2.2 46 46 VRB 5 7 30.24 1024 10 16 0.00 0.00
2:53 pm 14:53 Mostly Cloudy 49 9.4 29 -1.7 46 46 VRB 6 9 30.23 1024 10 16 0.00 0.00
3:53 pm 15:53 Partly Cloudy 50 10 30 -1.1 46 46 NNE 6 9 30.22 1024 10 16 0.00 0.00
4:53 pm 16:53 Mostly Sunny 49 9.4 31 -0.6 50 50 NNW 9 15 30.24 1024 10 16 0.00 0.00
5:53 pm 17:53 Mostly Cloudy 48 8.9 30 -1.1 50 50 NNW 5 7 30.27 1025 10 16 0.00 0.00
6:53 pm 18:53 Partly Cloudy 47 8.3 30 -1.1 52 52 Calm 30.29 1026 10 16 0.00 0.00
7:53 pm 19:53 Mostly Clear 44 6.7 31 -0.6 60 60 NNW 8 13 30.32 1027 10 16 0.00 0.00
8:53 pm 20:53 Mostly Cloudy 43 6.1 32 0 65 65 N 7 11 30.35 1028 10 16 0.00 0.00
9:53 pm 21:53 Mostly Cloudy 42 5.6 32 0 68 68 N 8 13 30.37 1028 10 16 0.00 0.00
10:53 pm 22:53 Mostly Cloudy 43 6.1 30 -1.1 60 60 NNW 9 15 30.38 1029 10 16 0.00 0.00
11:53 pm 23:53 Partly Cloudy 41 5 30 -1.1 65 65 N 10 17 30.40 1029 10 16 0.00 0.00

Powered by AerisWeather